When you browse on this site, cookies collect data to enhance your experience and personalize the content and advertising you see.
Visit our Privacy Policy to learn more. By continuing to use the site, you agree to this use of cookies and data.
  • In Österreich
  • Länderverzeichnis
  • Für 7 Tage
  • Wassertemperatur
  • Satellitenkarten
  • Wetterkarte
  • News
  • Widgets
  • user-avatar
    Anmelden

    Stündliche Wetter Melbourne

    Heute, 12 Dezember, Mittwoch

    Zeit Temperatur Niederschläge Wind Luftdruck Luftfeuchtigkeit
    00:00 +18°C° 0 mm 1 m/S 758 mmHg 82%
    01:00 +18°C° 0 mm 1 m/S 757 mmHg 84%
    02:00 +18°C° 0 mm 1 m/S 757 mmHg 84%
    03:00 +18°C° 0 mm 1 m/S 757 mmHg 84%
    04:00 +18°C° 0 mm 1 m/S 756 mmHg 84%
    05:00 +19°C° 0 mm 2 m/S 756 mmHg 80%
    06:00 +20°C° 0 mm 3 m/S 756 mmHg 76%
    07:00 +22°C° 0 mm 4 m/S 756 mmHg 72%
    08:00 +25°C° 0 mm 4 m/S 756 mmHg 63%
    09:00 +28°C° 0 mm 4 m/S 755 mmHg 54%
    10:00 +30°C° 0 mm 5 m/S 755 mmHg 45%
    11:00 +33°C° 0 mm 4 m/S 754 mmHg 40%
    12:00 +34°C° 0 mm 4 m/S 754 mmHg 34%
    13:00 +35°C° 0 mm 4 m/S 753 mmHg 28%
    14:00 +35°C° 0 mm 4 m/S 752 mmHg 31%
    15:00 +34°C° 0 mm 4 m/S 752 mmHg 34%
    16:00 +33°C° 0 mm 4 m/S 751 mmHg 37%
    17:00 +32°C° 0 mm 4 m/S 751 mmHg 43%
    18:00 +29°C° 0 mm 4 m/S 750 mmHg 48%
    19:00 +27°C° 0 mm 4 m/S 750 mmHg 53%
    20:00 +26°C° 0.1 mm 3 m/S 750 mmHg 57%
    21:00 +25°C° 0.1 mm 2 m/S 750 mmHg 60%
    22:00 +24°C° 0.1 mm 1 m/S 750 mmHg 64%
    23:00 +24°C° 0.1 mm 2 m/S 749 mmHg 66%

    Morgen, 13 Dezember, Donnerstag

    Zeit Temperatur Niederschläge Wind Luftdruck Luftfeuchtigkeit
    00:00 +24°C° 0.1 mm 2 m/S 748 mmHg 68%
    01:00 +23°C° 0.1 mm 2 m/S 748 mmHg 70%
    02:00 +22°C° 0.1 mm 3 m/S 747 mmHg 73%
    03:00 +22°C° 0.1 mm 4 m/S 747 mmHg 76%
    04:00 +22°C° 0.1 mm 4 m/S 746 mmHg 79%
    05:00 +22°C° 1.2 mm 4 m/S 746 mmHg 82%
    06:00 +22°C° 1.2 mm 3 m/S 746 mmHg 85%
    07:00 +22°C° 1.2 mm 3 m/S 746 mmHg 88%
    08:00 +21°C° 4.9 mm 3 m/S 745 mmHg 90%
    09:00 +21°C° 4.9 mm 3 m/S 745 mmHg 92%
    10:00 +21°C° 4.9 mm 3 m/S 745 mmHg 94%
    11:00 +21°C° 3.7 mm 3 m/S 745 mmHg 93%
    12:00 +21°C° 3.7 mm 3 m/S 744 mmHg 92%
    13:00 +21°C° 3.7 mm 3 m/S 744 mmHg 91%
    14:00 +20°C° 2.3 mm 3 m/S 744 mmHg 92%
    15:00 +20°C° 2.3 mm 3 m/S 744 mmHg 93%
    16:00 +19°C° 2.3 mm 4 m/S 743 mmHg 94%
    17:00 +19°C° 0.8 mm 3 m/S 743 mmHg 94%
    18:00 +19°C° 0.8 mm 2 m/S 743 mmHg 94%
    19:00 +19°C° 0.8 mm 2 m/S 743 mmHg 94%
    20:00 +19°C° 1.4 mm 2 m/S 743 mmHg 95%
    21:00 +19°C° 1.4 mm 2 m/S 743 mmHg 96%
    22:00 +19°C° 1.4 mm 1 m/S 743 mmHg 96%
    23:00 +18°C° 1 mm 2 m/S 744 mmHg 96%

    übermorgen, 14 Dezember, Freitag

    Zeit Temperatur Niederschläge Wind Luftdruck Luftfeuchtigkeit
    00:00 +18°C° 1 mm 3 m/S 744 mmHg 96%
    01:00 +17°C° 1 mm 3 m/S 744 mmHg 95%
    02:00 +17°C° 1.2 mm 3 m/S 745 mmHg 95%
    03:00 +16°C° 1.2 mm 2 m/S 745 mmHg 94%
    04:00 +15°C° 1.2 mm 2 m/S 746 mmHg 94%
    05:00 +15°C° 0.7 mm 2 m/S 747 mmHg 93%
    06:00 +15°C° 0.7 mm 2 m/S 748 mmHg 93%
    07:00 +15°C° 0.7 mm 1 m/S 748 mmHg 92%
    08:00 +16°C° 0.4 mm 1 m/S 749 mmHg 86%
    09:00 +19°C° 0.4 mm 1 m/S 749 mmHg 79%
    10:00 +20°C° 0.4 mm 1 m/S 750 mmHg 72%
    11:00 +20°C° 0 mm 2 m/S 750 mmHg 65%
    12:00 +23°C° 0 mm 2 m/S 750 mmHg 58%
    13:00 +24°C° 0 mm 2 m/S 750 mmHg 51%
    14:00 +24°C° 0 mm 2 m/S 750 mmHg 51%
    15:00 +25°C° 0 mm 3 m/S 750 mmHg 50%
    16:00 +25°C° 0 mm 3 m/S 750 mmHg 50%
    17:00 +24°C° 0 mm 2 m/S 750 mmHg 56%
    18:00 +23°C° 0 mm 2 m/S 750 mmHg 63%
    19:00 +20°C° 0 mm 2 m/S 751 mmHg 69%
    20:00 +19°C° 0 mm 2 m/S 751 mmHg 75%
    21:00 +18°C° 0 mm 2 m/S 751 mmHg 81%
    22:00 +17°C° 0 mm 2 m/S 752 mmHg 87%
    23:00 +17°C° 0 mm 2 m/S 751 mmHg 88%

    15 Dezember, Samstag

    Zeit Temperatur Niederschläge Wind Luftdruck Luftfeuchtigkeit
    00:00 +18°C° 0 mm 1 m/S 751 mmHg 90%
    01:00 +18°C° 0 mm 1 m/S 751 mmHg 92%
    02:00 +18°C° 0.4 mm 1 m/S 750 mmHg 93%
    03:00 +18°C° 0.4 mm 1 m/S 750 mmHg 95%
    04:00 +18°C° 0.4 mm 1 m/S 750 mmHg 97%
    05:00 +19°C° 0.4 mm 1 m/S 750 mmHg 94%
    06:00 +20°C° 0.4 mm 1 m/S 750 mmHg 91%
    07:00 +21°C° 0.4 mm 1 m/S 750 mmHg 88%
    08:00 +23°C° 0 mm 1 m/S 750 mmHg 73%
    09:00 +25°C° 0 mm 2 m/S 750 mmHg 59%
    10:00 +27°C° 0 mm 2 m/S 751 mmHg 45%
    11:00 +28°C° 0 mm 3 m/S 750 mmHg 43%
    12:00 +28°C° 0 mm 4 m/S 750 mmHg 41%
    13:00 +28°C° 0 mm 5 m/S 750 mmHg 39%
    14:00 +28°C° 0.1 mm 5 m/S 750 mmHg 41%
    15:00 +28°C° 0.1 mm 4 m/S 750 mmHg 42%
    16:00 +27°C° 0.1 mm 4 m/S 750 mmHg 44%
    17:00 +26°C° 0 mm 3 m/S 750 mmHg 50%
    18:00 +25°C° 0 mm 2 m/S 750 mmHg 56%
    19:00 +23°C° 0 mm 2 m/S 750 mmHg 62%
    20:00 +21°C° 0.2 mm 2 m/S 750 mmHg 67%
    21:00 +20°C° 0.2 mm 2 m/S 751 mmHg 72%
    22:00 +19°C° 0.2 mm 2 m/S 751 mmHg 77%
    23:00 +19°C° 0.3 mm 1 m/S 751 mmHg 81%

    16 Dezember, Sonntag

    Zeit Temperatur Niederschläge Wind Luftdruck Luftfeuchtigkeit
    00:00 +18°C° 0.3 mm 1 m/S 751 mmHg 84%
    01:00 +18°C° 0.3 mm 1 m/S 750 mmHg 88%
    02:00 +18°C° 0.4 mm 1 m/S 750 mmHg 89%
    03:00 +16°C° 0.4 mm 2 m/S 750 mmHg 90%
    04:00 +16°C° 0.4 mm 2 m/S 750 mmHg 91%
    05:00 +17°C° 0 mm 2 m/S 751 mmHg 89%
    06:00 +18°C° 0 mm 2 m/S 751 mmHg 86%
    07:00 +19°C° 0 mm 3 m/S 751 mmHg 83%
    08:00 +20°C° 0.4 mm 3 m/S 752 mmHg 79%
    09:00 +22°C° 0.4 mm 3 m/S 752 mmHg 74%
    10:00 +24°C° 0.4 mm 3 m/S 752 mmHg 69%
    11:00 +25°C° 0.6 mm 3 m/S 752 mmHg 66%
    12:00 +25°C° 0.6 mm 3 m/S 751 mmHg 63%
    13:00 +26°C° 0.6 mm 3 m/S 751 mmHg 60%
    14:00 +26°C° 0.2 mm 3 m/S 751 mmHg 60%
    15:00 +26°C° 0.2 mm 3 m/S 751 mmHg 60%
    16:00 +27°C° 0.2 mm 3 m/S 751 mmHg 60%
    17:00 +26°C° 0.2 mm 2 m/S 751 mmHg 65%
    18:00 +25°C° 0.2 mm 2 m/S 752 mmHg 71%
    19:00 +24°C° 0.2 mm 2 m/S 752 mmHg 76%
    20:00 +22°C° 0 mm 1 m/S 752 mmHg 80%
    21:00 +21°C° 0 mm 1 m/S 753 mmHg 84%
    22:00 +20°C° 0 mm 1 m/S 753 mmHg 88%
    23:00 +19°C° 0 mm 1 m/S 753 mmHg 90%

    17 Dezember, Montag

    Zeit Temperatur Niederschläge Wind Luftdruck Luftfeuchtigkeit
    00:00 +18°C° 0 mm 2 m/S 753 mmHg 92%
    01:00 +17°C° 0 mm 2 m/S 753 mmHg 93%
    02:00 +17°C° 0 mm 2 m/S 754 mmHg 93%
    03:00 +17°C° 0 mm 2 m/S 754 mmHg 93%
    04:00 +17°C° 0 mm 2 m/S 754 mmHg 93%
    05:00 +18°C° 0 mm 2 m/S 754 mmHg 91%
    06:00 +18°C° 0 mm 2 m/S 755 mmHg 89%
    07:00 +19°C° 0 mm 2 m/S 755 mmHg 86%
    08:00 +20°C° 0 mm 3 m/S 756 mmHg 81%
    09:00 +21°C° 0 mm 3 m/S 756 mmHg 76%
    10:00 +24°C° 0 mm 3 m/S 756 mmHg 71%
    11:00 +24°C° 0 mm 3 m/S 756 mmHg 69%
    12:00 +25°C° 0 mm 4 m/S 756 mmHg 67%
    13:00 +25°C° 0 mm 4 m/S 756 mmHg 64%
    14:00 +25°C° 0 mm 4 m/S 756 mmHg 66%
    15:00 +25°C° 0 mm 4 m/S 756 mmHg 68%
    16:00 +23°C° 0 mm 4 m/S 756 mmHg 69%
    17:00 +22°C° 0 mm 4 m/S 756 mmHg 73%
    18:00 +21°C° 0 mm 4 m/S 756 mmHg 77%
    19:00 +20°C° 0 mm 3 m/S 757 mmHg 80%
    20:00 +19°C° 0 mm 3 m/S 757 mmHg 83%
    21:00 +19°C° 0 mm 3 m/S 758 mmHg 86%
    22:00 +18°C° 0 mm 3 m/S 758 mmHg 89%
    23:00 +18°C° 0 mm 3 m/S 758 mmHg 90%
    Mehr zeigen